Weather History for FBFT - October, 2011

Change the Weather History Date:

Monday, October 31, 2011

  Actual Average Record
Temperature  
Mean Temperature 88 °F -  
Max Temperature 103 °F 86 °F 102 °F (2011)
Min Temperature 73 °F 64 °F 56 °F (2014)
Cooling Degree Days 23    
Growing Degree Days 38 (Base 50)    
Moisture  
Dew Point 52 °F    
Average Humidity 30    
Maximum Humidity 53    
Minimum Humidity 9    
Precipitation  
Precipitation 0.00 in - - ()
Sea Level Pressure  
Sea Level Pressure 29.87 in    
Wind  
Wind Speed 6 mph ()    
Max Wind Speed 15 mph    
Max Gust Speed -    
Visibility 6.2 miles    
Events      
Averages and records for this station are not official NWS values.
T = Trace of Precipitation, MM = Missing Value Source: Averaged Metar Reports

Daily Weather History Graph

Daily Weather History Graph

Search for Another Location

Airport or City:

Trip Planner

Search our weather history database for the weather conditions in past years. The results will help you decide how hot, cold, wet, or windy it might be!

Date:

Astronomy

Oct. 31, 2011 Rise Set
Actual Time 5:27 AM CAT 6:19 PM CAT
Civil Twilight 5:04 AM CAT 6:42 PM CAT
Nautical Twilight 4:37 AM CAT 7:10 PM CAT
Astronomical Twilight 4:09 AM CAT 7:37 PM CAT
Moon 9:35 AM CAT (10/31) 11:11 PM CAT (10/31)
Length of Visible Light 13h 38m
Length of Day
12h 51m
Waxing Crescent, 27% of the Moon is Illuminated
Oct 31
Waxing Crescent
Nov 2
First Quarter
Nov 10
Full
Nov 18
Last Quarter
Nov 25
New

Hourly Weather History & Observations

Time (CAT) Temp. Heat Index Dew Point Humidity Pressure Visibility Wind Dir Wind Speed Gust Speed Precip Events Conditions
12:00 AM 80.6 °F 80.8 °F 57.2 °F 45% 29.86 in - Variable 2.3 mph - N/A   Clear
1:00 AM 77.0 °F - 51.8 °F 41% 29.83 in - NNE 4.6 mph - N/A   Clear
2:00 AM 73 °F - 42 °F 21%  in 6 mi NNW 6.9 mph - -  
2:00 AM 73.4 °F - 55.4 °F 53% 29.86 in - NNW 6.9 mph - N/A   Clear
3:00 AM 77.0 °F - 51.8 °F 41% 29.86 in - NE 5.8 mph - N/A   Clear
4:00 AM 73.4 °F - 53.6 °F 50% 29.86 in - North 3.5 mph - N/A   Clear
5:00 AM 73.4 °F - 51.8 °F 47% 29.86 in - West 6.9 mph - N/A   Clear
6:00 AM 73.4 °F - 48.2 °F 41% 29.92 in - West 5.8 mph - N/A   Clear
7:00 AM 75.2 °F - 57.2 °F 53% 29.95 in - Variable 2.3 mph - N/A   Clear
9:00 AM 91.4 °F 89.4 °F 55.4 °F 29% 29.95 in - NNW 5.8 mph - N/A   Clear
10:00 AM 95.0 °F 93.0 °F 55.4 °F 26% 29.95 in - WNW 8.1 mph - N/A   Clear
11:00 AM 98.6 °F - 51.8 °F 21% 29.92 in - NNW 8.1 mph - N/A   Clear
12:00 PM 100.4 °F - 51.8 °F 20% 29.89 in - WNW 13.8 mph - N/A   Clear
1:00 PM 102.2 °F - 48.2 °F 16% 29.86 in 6.2 mi NW 15.0 mph - N/A   Partly Cloudy
2:00 PM 103 °F - 48 °F 9%  in 6 mi NNW 12.7 mph - -   Haze
2:00 PM 102.2 °F - 48.2 °F 16% 29.83 in 6.2 mi NNW 12.7 mph - N/A   Scattered Clouds
3:00 PM 102.2 °F - 48.2 °F 16% 29.83 in 6.2 mi NNW 12.7 mph - N/A   Scattered Clouds
4:00 PM 102.2 °F - 48.2 °F 16% 29.80 in 6.2 mi NW 9.2 mph - N/A   Scattered Clouds
5:00 PM 100.4 °F - 50.0 °F 18% 29.80 in 6.2 mi NW 10.4 mph - N/A   Partly Cloudy
6:00 PM 96.8 °F 95.1 °F 55.4 °F 25% 29.83 in 6.2 mi WNW 4.6 mph - N/A   Scattered Clouds
7:00 PM 93.2 °F - 51.8 °F 24% 29.86 in 6.2 mi SSW 5.8 mph - N/A   Scattered Clouds
8:00 PM 89 °F - 56 °F 22%  in 6 mi SSE 13.8 mph - -   Scattered Clouds
8:00 PM 89.6 °F 87.7 °F 55.4 °F 31% 29.89 in 6.2 mi SSE 13.8 mph - N/A   Scattered Clouds
9:00 PM 86.0 °F 85.4 °F 59.0 °F 40% 29.92 in 6.2 mi SSE 4.6 mph - N/A   Scattered Clouds
10:00 PM 86.0 °F 85.4 °F 59.0 °F 40% 29.92 in 6.2 mi ESE 5.8 mph - N/A   Scattered Clouds